GFA109 OBBI-OEDF

Flight info

Callsign GFA109
Flight time 0h 13m
Altitude 10000
Route BHR B457 NARMI
Aircraft A320/M-SDE3FGHIRWY/LB1

Departure

Time 2026-05-07 17:54
Airport Bahrain International Airport (OBBI)

Arrival

Time 2026-05-07 18:08
Airport King Fahd International Airport (OEDF)
Time Latitude Longitude Altitude Speed Heading
2026-05-07 17:27 26.26797 50.63069 21 ft 0 kts 213°
2026-05-07 17:43 26.26806 50.63075 20 ft 2 kts 211°
2026-05-07 17:43 26.26819 50.63084 20 ft 2 kts 213°
2026-05-07 17:43 26.26833 50.63094 22 ft 2 kts 213°
2026-05-07 17:44 26.26847 50.63104 22 ft 2 kts 213°
2026-05-07 17:44 26.26861 50.63114 24 ft 2 kts 214°
2026-05-07 17:44 26.26873 50.63127 21 ft 2 kts 246°
2026-05-07 17:44 26.26877 50.63145 22 ft 2 kts 273°
2026-05-07 17:45 26.26875 50.63161 21 ft 1 kts 296°
2026-05-07 17:45 26.26874 50.63164 22 ft 0 kts 301°
2026-05-07 17:49 26.26876 50.63161 21 ft 2 kts 301°
2026-05-07 17:49 26.26890 50.63148 24 ft 9 kts 329°
2026-05-07 17:50 26.26957 50.63183 20 ft 13 kts 76°
2026-05-07 17:50 26.26927 50.63276 19 ft 13 kts 124°
2026-05-07 17:50 26.26854 50.63400 22 ft 22 kts 120°
2026-05-07 17:50 26.26774 50.63539 19 ft 20 kts 125°
2026-05-07 17:51 26.26701 50.63661 22 ft 17 kts 124°
2026-05-07 17:51 26.26644 50.63755 21 ft 13 kts 123°
2026-05-07 17:51 26.26580 50.63873 23 ft 23 kts 122°
2026-05-07 17:51 26.26480 50.64045 20 ft 28 kts 122°
2026-05-07 17:52 26.26422 50.64148 20 ft 0 kts 122°
2026-05-07 17:52 26.26410 50.64169 20 ft 4 kts 122°
2026-05-07 17:52 26.26389 50.64223 20 ft 22 kts 102°
2026-05-07 17:52 26.26415 50.64281 20 ft 7 kts 39°
2026-05-07 17:53 26.26487 50.64332 15 ft 15 kts 23°
2026-05-07 17:53 26.26562 50.64276 16 ft 15 kts 304°
2026-05-07 17:53 26.26620 50.64175 16 ft 19 kts 301°
2026-05-07 17:53 26.26824 50.63813 17 ft 89 kts 304°
2026-05-07 17:54 26.27269 50.63058 16 ft 142 kts 302°
2026-05-07 17:54 26.27879 50.62029 304 ft 156 kts 302°
2026-05-07 17:54 26.28469 50.61050 1026 ft 156 kts 306°
2026-05-07 17:54 26.29112 50.60007 1508 ft 171 kts 306°
2026-05-07 17:55 26.29807 50.58860 1884 ft 189 kts 300°
2026-05-07 17:55 26.30085 50.57340 2051 ft 218 kts 271°
2026-05-07 17:55 26.30047 50.55553 2326 ft 242 kts 272°
2026-05-07 17:55 26.30045 50.53580 2661 ft 264 kts 273°
2026-05-07 17:56 26.30055 50.51494 3278 ft 273 kts 272°
2026-05-07 17:56 26.30065 50.49360 4015 ft 277 kts 272°
2026-05-07 17:56 26.30073 50.47206 4755 ft 280 kts 272°
2026-05-07 17:56 26.30076 50.45055 5473 ft 283 kts 271°
2026-05-07 17:57 26.30076 50.42840 5861 ft 286 kts 271°
2026-05-07 17:57 26.30075 50.41372 5955 ft 285 kts 270°
2026-05-07 17:57 26.30071 50.38244 5995 ft 322 kts 270°
2026-05-07 17:57 26.30068 50.35633 5989 ft 351 kts 270°
2026-05-07 17:58 26.30067 50.32825 5989 ft 369 kts 270°
2026-05-07 17:58 26.30015 50.29946 5986 ft 373 kts 268°
2026-05-07 17:58 26.29895 50.27057 5984 ft 373 kts 267°
2026-05-07 17:58 26.29741 50.24172 5978 ft 373 kts 266°
2026-05-07 17:59 26.29577 50.21317 5976 ft 373 kts 266°
2026-05-07 17:59 26.29416 50.18433 5982 ft 373 kts 266°
2026-05-07 17:59 26.29262 50.15543 5980 ft 373 kts 266°
2026-05-07 17:59 26.29119 50.12691 5974 ft 358 kts 267°
2026-05-07 18:00 26.28989 50.10017 5972 ft 330 kts 267°
2026-05-07 18:00 26.28872 50.07585 5973 ft 299 kts 267°
2026-05-07 18:00 26.28768 50.05379 5975 ft 271 kts 267°
2026-05-07 18:00 26.28671 50.03371 5896 ft 251 kts 266°
2026-05-07 18:01 26.28573 50.01456 5499 ft 245 kts 267°
2026-05-07 18:01 26.28475 49.99561 5031 ft 244 kts 267°
2026-05-07 18:01 26.28376 49.97699 4558 ft 244 kts 268°
2026-05-07 18:01 26.28276 49.95828 4267 ft 236 kts 268°
2026-05-07 18:02 26.28088 49.92370 3897 ft 215 kts 268°
2026-05-07 18:02 26.28001 49.90713 3621 ft 213 kts 268°
2026-05-07 18:02 26.27928 49.89072 3305 ft 210 kts 274°
2026-05-07 18:03 26.28329 49.87564 3261 ft 198 kts 304°
2026-05-07 18:03 26.29244 49.86533 3126 ft 180 kts 331°
2026-05-07 18:03 26.30380 49.86064 2974 ft 185 kts 345°
2026-05-07 18:03 26.31664 49.85672 2737 ft 189 kts 345°
2026-05-07 18:04 26.32917 49.85288 2499 ft 185 kts 344°
2026-05-07 18:04 26.34151 49.84908 2264 ft 183 kts 344°
2026-05-07 18:04 26.35333 49.84544 2045 ft 169 kts 345°
2026-05-07 18:04 26.36415 49.84210 1844 ft 154 kts 346°
2026-05-07 18:05 26.37409 49.83904 1663 ft 145 kts 343°
2026-05-07 18:05 26.38354 49.83613 1472 ft 140 kts 344°
2026-05-07 18:05 26.39284 49.83327 1292 ft 137 kts 345°
2026-05-07 18:05 26.40201 49.83044 1118 ft 136 kts 345°
2026-05-07 18:06 26.41106 49.82765 952 ft 135 kts 343°
2026-05-07 18:06 26.42008 49.82487 794 ft 134 kts 345°
2026-05-07 18:06 26.42908 49.82209 633 ft 134 kts 346°
2026-05-07 18:06 26.43806 49.81932 455 ft 134 kts 346°
2026-05-07 18:07 26.44698 49.81655 264 ft 133 kts 347°
2026-05-07 18:07 26.45575 49.81383 112 ft 132 kts 348°
2026-05-07 18:07 26.46396 49.81137 89 ft 107 kts 348°
2026-05-07 18:07 26.46958 49.80969 90 ft 58 kts 343°
2026-05-07 18:08 26.47180 49.80907 86 ft 12 kts 342°
2026-05-07 18:08 26.47264 49.80877 88 ft 13 kts 342°
2026-05-07 18:08 26.47380 49.80837 87 ft 36 kts 345°
2026-05-07 18:08 26.47913 49.80672 89 ft 120 kts 345°
2026-05-07 18:09 26.48905 49.80325 293 ft 162 kts 337°
2026-05-07 18:09 26.49821 49.79712 1202 ft 155 kts 328°
2026-05-07 18:09 26.50713 49.79090 1893 ft 144 kts 337°
2026-05-07 18:09 26.51639 49.78959 2603 ft 130 kts 11°
2026-05-07 18:10 26.52671 49.79191 2603 ft 183 kts
2026-05-07 18:10 26.53971 49.79484 2500 ft 197 kts 13°
2026-05-07 18:10 26.55326 49.79956 2023 ft 204 kts 16°
2026-05-07 18:10 26.56655 49.80444 1753 ft 198 kts 16°
2026-05-07 18:11 26.57963 49.80711 1528 ft 187 kts 351°
2026-05-07 18:11 26.58758 49.80378 1535 ft 187 kts 326°
2026-05-07 18:11 26.59577 49.78715 1531 ft 194 kts 276°
2026-05-07 18:11 26.59178 49.77259 1540 ft 199 kts 238°
2026-05-07 18:12 26.58068 49.76405 1532 ft 196 kts 196°
2026-05-07 18:12 26.56746 49.76459 1531 ft 193 kts 166°
2026-05-07 18:12 26.55432 49.76765 1534 ft 190 kts 174°
2026-05-07 18:12 26.54140 49.76802 1393 ft 182 kts 180°
2026-05-07 18:13 26.52905 49.76865 1200 ft 171 kts 174°
2026-05-07 18:13 26.51738 49.77116 816 ft 171 kts 160°
2026-05-07 18:13 26.50630 49.77562 461 ft 167 kts 159°
2026-05-07 18:13 26.49546 49.77916 241 ft 161 kts 162°
2026-05-07 18:14 26.48512 49.78258 90 ft 157 kts 161°
2026-05-07 18:14 26.47547 49.78570 100 ft 137 kts 161°
2026-05-07 18:14 26.46749 49.78800 90 ft 97 kts 162°
2026-05-07 18:14 26.46390 49.78902 88 ft 18 kts 160°
2026-05-07 18:15 26.46281 49.78956 89 ft 16 kts 155°
2026-05-07 18:15 26.46182 49.79008 89 ft 15 kts 154°
2026-05-07 18:15 26.46109 49.79048 87 ft 8 kts 154°
2026-05-07 18:15 26.46079 49.79064 87 ft 1 kts 153°
2026-05-07 18:16 26.46078 49.79065 87 ft 0 kts 153°